Weather Roundup
Issued by NWS Corpus Christi, TX

Home | Current Version | Previous Version | Text Only | Print | Product List | Glossary On
Versions: 1 2 3 4 5 6 7 8 9 10 11 12 13 14 15 16 17 18 19 20 21 22 23 24 25 26 27 28 29 30 31 32 33 34 35 36 37 38 39 40 41 42 43 44 45 46 47 48 49 50
000
ASUS44 KCRP 020110
HRRCRP

SOUTH TEXAS REGIONAL WEATHER ROUNDUP
NATIONAL WEATHER SERVICE CORPUS CHRISTI TX
800 PM CDT WED JUL 01 2015


TXZ229>244-020200-
...CORPUS CHRISTI AREA OBSERVATIONS...

CITY           SKY/WX    TMP DP  RH WIND       PRES   REMARKS
CORPUS CHRISTI CLOUDY    81  70  69 S7        30.00R
NAS CORPUS CHR CLOUDY    80  71  74 SE8       30.00S
ROCKPORT       CLOUDY    80  71  74 SE6       30.00S
KINGSVILLE NAS PTCLDY    82  69  64 S8        30.00R
ALICE          MOCLDY    81  68  64 S9        29.99R
FALFURRIAS     PTCLDY    81  65  59 S8        30.00R
$$

...VICTORIA AREA OBSERVATIONS...

CITY           SKY/WX    TMP DP  RH WIND       PRES   REMARKS
VICTORIA       CLOUDY    76  73  91 CALM      30.03R
BEEVILLE       FAIR      78  77  98 CALM      30.01R
PLEASANTON     MOCLDY    80  69  68 SE6       30.01R
SAN ANTONIO    MOCLDY    81  69  67 S12       30.01S
$$

...LAREDO AREA OBSERVATIONS...

CITY           SKY/WX    TMP DP  RH WIND       PRES   REMARKS
LAREDO         MOCLDY    85  60  42 SE20G25   29.99R
COTULLA        MOCLDY    81  69  67 S9        29.98R
DEL RIO        PTCLDY    85  70  60 SE13G24   29.93S
MCALLEN        LGT RAIN  82  67  60 SE6       30.00R
HEBBRONVILLE     N/A     80  62  52 SE9       30.01R
$$

...OTHER TEXAS OBSERVATIONS...

CITY           SKY/WX    TMP DP  RH WIND       PRES   REMARKS
BROWNSVILLE    MOCLDY    79  67  66 S5        30.00S
HOUSTON        CLOUDY    76  74  93 CALM      30.02S
COL. STATION   PTCLDY    79  71  76 S7        30.01S
AUSTIN         MOCLDY    80  71  74 S9        29.99R
WACO           PTCLDY    83  70  64 S10       29.96F
FORT WORTH     MOCLDY    89  69  51 S16G25    29.92S HX  93
WICHITA FALLS  PTCLDY    90  66  45 S18G26    29.87F HX  92
LUBBOCK        PTSUNNY   87  61  41 S17       29.98S
EL PASO        MOSUNNY   95  48  20 NE7       29.94S HX  91
$$

...MARINE OBSERVATIONS...

STATION/POSITION TIME  SKY/WX   TEMP    WIND        PRES    VSBY  WAVE   SWELL
                                AIR SEA DIR/SP/G                  HT/PER HT/PER
                 (UTC)          (F)     (DEG/KT/KT) (MB)    (MI)  (FT/S) (FT/S)
PORT ARANSAS     0000            79 80  110/  6/  7 1016.8S
BUOY 90 E PORT A NOT AVBL
BUOY 45 SE BAFFI 0050            81 83  170/  4/  4 1016.3R         4/ 8   3/ 8
BUOY 200 E PT IS 0050            84 84  150/ 10/ 12 1017.5R         4/ 7   3/ 7
BUOY 15 E GALVES 0050            80 83  310/ 10/ 14 1016.4F         4/ 7   3/ 7
$$


USA.gov is the U.S. government's official web portal to all federal, state and local government web resources and services.